Location: College Park
(38.9810°N, 76.9370°W)
Time: 00:12:22
(UTC-05:00)

Vanguard 1 Rocket - Visible Passes

Search period start: 20 January 2018 00:00
Search period end: 30 January 2018 00:00
Orbit: 656 x 4222 km, 34.3° (Epoch: 18 January)

Date Brightness Start Highest point End Pass type
(mag) Time Alt. Az. Time Alt. Az. Time Alt. Az.
20 Jan 11.1 03:51:52 10° S 04:03:16 19° SSE 04:11:18 10° ESE visible
20 Jan 9.8 06:17:39 10° SW 06:31:04 41° SSE 06:38:24 10° E visible
21 Jan 11.5 02:43:19 10° SSE 02:50:21 13° SE 02:56:14 10° ESE visible
21 Jan 10.3 05:04:14 10° SSW 05:19:00 34° SSE 05:27:35 10° E visible
22 Jan 10.8 03:51:37 10° SSW 04:06:28 26° SSE 04:16:00 10° E visible
22 Jan 9.6 06:19:38 10° SW 06:34:18 49° SSE 06:41:58 10° E visible
23 Jan 11.2 02:40:39 10° S 02:53:30 19° SE 03:02:57 10° ESE visible
23 Jan 10.1 05:05:35 10° SW 05:22:11 42° SSE 05:31:19 10° E visible
24 Jan 11.6 01:34:04 10° SSE 01:40:12 12° SE 01:45:40 10° SE visible
24 Jan 10.6 03:52:09 10° SSW 04:09:34 34° SSE 04:20:06 10° E visible
24 Jan 9.4 06:21:52 10° WSW 06:37:29 57° SSE 06:45:27 10° E visible
25 Jan 11.0 02:46:45 18° S 02:56:31 26° SSE 03:07:52 10° E visible
25 Jan 9.9 05:07:17 10° SW 05:25:19 50° SSE 05:34:53 10° E visible
26 Jan 11.4 01:41:28 18° SSE 01:43:11 18° SE 01:53:37 10° ESE visible
26 Jan 10.3 03:58:54 20° SSW 04:12:36 42° SSE 04:23:52 10° E visible
26 Jan 9.3 06:24:16 10° WSW 06:40:40 64° S 06:48:52 10° E visible
27 Jan 10.8 02:53:05 28° S 02:59:27 33° SSE 03:12:04 10° E visible
27 Jan 9.7 05:10:30 12° SW 05:28:25 58° SSE 05:38:21 10° E visible
28 Jan 11.2 01:46:56 24° SE 01:46:56 24° SE 01:58:55 10° E visible
28 Jan 10.2 04:04:19 28° SSW 04:15:36 49° SSE 04:27:25 10° E visible
28 Jan 9.3 06:26:49 10° WSW 06:43:50 68° S 06:52:16 10° E visible
29 Jan 11.6 00:40:33 12° ESE 00:40:33 12° ESE 00:42:48 10° ESE visible
29 Jan 10.6 02:57:54 37° S 03:02:19 40° SSE 03:15:53 10° E visible
29 Jan 9.7 05:15:14 17° WSW 05:31:29 64° SSE 05:41:44 10° E visible
